Regional Weather Roundup
Issued by NWS Cleveland, OH

Home | Current Version | Previous Version | Graphics & Text | Print | Product List | Glossary On
Versions: 1 2 3 4 5 6 7 8 9 10 11 12 13 14 15 16 17 18 19 20 21 22 23 24 25 26 27 28 29 30 31 32 33 34 35 36 37 38 39 40 41 42 43 44 45 46 47 48 49 50
000
ASUS41 KCLE 282010
RWRCLE
OHIO REGIONAL WEATHER ROUNDUP
NATIONAL WEATHER SERVICE WILMINGTON, OH
300 PM EST FRI NOV 28 2014

NOTE: "FAIR" INDICATES FEW OR NO CLOUDS BELOW 12,000 FEET WITH NO
SIGNIFICANT WEATHER AND/OR OBSTRUCTIONS TO VISIBILITY.

OHZ001>008-015>018-024>027-034-035-043-044-282100-
   NORTHWEST OHIO

CITY           SKY/WX    TMP DP  RH WIND       PRES   REMARKS
DEFIANCE       LGT SNOW  27  22  81 S7        30.20F WCI  19
FINDLAY        CLOUDY    29  21  72 S12       30.21S WCI  19
TOLEDO EXPRESS CLOUDY    26  18  71 S9        30.21F WCI  17
TOLEDO METCALF LGT SNOW  28  17  63 SW12      30.23F WCI  18
LIMA           CLOUDY    31  17  56 S12       30.20F WCI  22
$$

OHZ009>014-019>023-028>033-038-089-282100-
   NORTHEAST OHIO

CITY           SKY/WX    TMP DP  RH WIND       PRES   REMARKS
CLE-HOPKINS    PTSUNNY   26  15  63 SW10      30.26F WCI  16
CLE-LAKEFRONT  PTSUNNY   27  16  63 S12       30.25F WCI  17
CUY CO. ARPT   PTSUNNY   28  18  64 W12       30.24F WCI  18
LORAIN-ELYRIA  PTSUNNY   26  18  71 SW9       30.23F WCI  17
ASHTABULA      PTSUNNY   25  15  66 W10       30.24F WCI  15
AKRON-CANTON   CLOUDY    27  17  66 SW10      30.22F WCI  17
WOOSTER        CLOUDY    27  19  72 SW10      30.22F WCI  17
MANSFIELD      PTSUNNY   27  17  66 SW14      30.20F WCI  16
YOUNGSTOWN     PTSUNNY   25  14  63 SW8       30.22F WCI  16
$$

OHZ042-051>053-060>062-070>072-077>081-282100-
  SOUTHWEST OHIO

CITY           SKY/WX    TMP DP  RH WIND       PRES   REMARKS
CINC-COVINGTON CLOUDY    35  16  45 S13       30.23F WCI  26
CINC-LUNKEN    MOSUNNY   35  17  47 S9        30.27F WCI  28
HAMILTON       MOSUNNY   36  16  44 S7        30.26F
DAYTON         PTSUNNY   33  17  51 S8        30.22F WCI  26
WRIGHT-PAT AFB CLOUDY    33  17  50 SW7       30.24F WCI  27
DAYTON GENERAL MOSUNNY   33  18  53 S12       30.22F WCI  24
WILMINGTON     MOSUNNY   32  16  51 SW15      30.22F WCI  22
$$

OHZ036-037-039>041-045>050-054>059-063>069-073>076-082>088-282100-
  CENTRAL AND SOUTHEAST OHIO

CITY           SKY/WX    TMP DP  RH WIND       PRES   REMARKS
COLUMBUS       PTSUNNY   30  17  58 SW9       30.25F WCI  22
OSU AIRPORT    CLOUDY    30  18  60 S9        30.23F WCI  22
BOLTON FIELD   CLOUDY    30  19  64 S13       30.25F WCI  20
RICKENBACK AFB PTSUNNY   32  18  57 S9        30.25F WCI  24
NEWARK         CLOUDY    30  18  60 SW8       30.25F WCI  22
MARION         CLOUDY    29  18  63 SW12      30.22F WCI  19
LANCASTER      PTSUNNY   32  17  54 S9        30.26F WCI  24
ZANESVILLE     CLOUDY    29  14  53 SW7       30.26F WCI  22
NEW PHILLY     PTSUNNY   29  18  63 SW6       30.26F WCI  23
$$



USA.gov is the U.S. government's official web portal to all federal, state and local government web resources and services.